Year,Month,Day,Hour,Minute,Value (Times are PST for temperature in C)
2015,05,22,00,00,13.80
2015,05,22,00,01,13.70
2015,05,22,00,02,13.70
2015,05,22,00,03,13.70
2015,05,22,00,04,13.70
2015,05,22,00,05,13.70
2015,05,22,00,06,13.60
2015,05,22,00,07,13.60
2015,05,22,00,08,13.60
2015,05,22,00,09,13.60
2015,05,22,00,10,13.50
2015,05,22,00,11,13.50
2015,05,22,00,12,13.50
2015,05,22,00,13,13.50
2015,05,22,00,14,13.40
2015,05,22,00,15,13.40
2015,05,22,00,16,13.40
2015,05,22,00,17,13.40
2015,05,22,00,18,13.40
2015,05,22,00,19,13.30
2015,05,22,00,20,13.30
2015,05,22,00,21,13.30
2015,05,22,00,22,13.30
2015,05,22,00,23,13.30
2015,05,22,00,24,13.30
2015,05,22,00,25,13.20
2015,05,22,00,26,13.20
2015,05,22,00,27,13.20
2015,05,22,00,28,13.20
2015,05,22,00,29,13.20
2015,05,22,00,30,13.20
2015,05,22,00,31,13.20
2015,05,22,00,32,13.20
2015,05,22,00,33,13.10
2015,05,22,00,34,13.10
2015,05,22,00,35,13.10
2015,05,22,00,36,13.10
2015,05,22,00,37,13.10
2015,05,22,00,38,13.10
2015,05,22,00,39,13.10
2015,05,22,00,40,13.10
2015,05,22,00,41,13.10
2015,05,22,00,42,13.00
2015,05,22,00,43,13.00
2015,05,22,00,44,13.00
2015,05,22,00,45,13.00
2015,05,22,00,46,12.90
2015,05,22,00,47,12.90
2015,05,22,00,48,12.90
2015,05,22,00,49,12.90
2015,05,22,00,50,12.90
2015,05,22,00,51,12.90
2015,05,22,00,52,12.80
2015,05,22,00,53,12.80
2015,05,22,00,54,12.80
2015,05,22,00,55,12.80
2015,05,22,00,56,12.80
2015,05,22,00,57,12.80
2015,05,22,00,58,12.80
2015,05,22,00,59,12.80
2015,05,22,01,00,12.80
2015,05,22,01,01,12.80
2015,05,22,01,02,12.80
2015,05,22,01,03,12.70
2015,05,22,01,04,12.70
2015,05,22,01,05,12.70
2015,05,22,01,06,12.60
2015,05,22,01,07,12.60
2015,05,22,01,08,12.60
2015,05,22,01,09,12.60
2015,05,22,01,10,12.50
2015,05,22,01,11,12.50
2015,05,22,01,12,12.50
2015,05,22,01,13,12.50
2015,05,22,01,14,12.40
2015,05,22,01,15,12.40
2015,05,22,01,16,12.30
2015,05,22,01,17,12.30
2015,05,22,01,18,12.30
2015,05,22,01,19,12.20
2015,05,22,01,20,12.20
2015,05,22,01,21,12.20
2015,05,22,01,22,12.10
2015,05,22,01,23,12.10
2015,05,22,01,24,12.10
2015,05,22,01,25,12.10
2015,05,22,01,26,12.10
2015,05,22,01,27,12.10
2015,05,22,01,28,12.00
2015,05,22,01,29,12.00
2015,05,22,01,30,12.00
2015,05,22,01,31,12.00
2015,05,22,01,32,12.00
2015,05,22,01,33,12.00
2015,05,22,01,34,12.00
2015,05,22,01,35,12.00
2015,05,22,01,36,12.00
2015,05,22,01,37,12.00
2015,05,22,01,38,12.00
2015,05,22,01,39,12.00
2015,05,22,01,40,12.00
2015,05,22,01,41,12.00
2015,05,22,01,42,12.00
2015,05,22,01,43,12.00
2015,05,22,01,44,12.00
2015,05,22,01,45,12.00
2015,05,22,01,46,12.00
2015,05,22,01,47,12.00
2015,05,22,01,48,12.00
2015,05,22,01,49,12.00
2015,05,22,01,50,12.00
2015,05,22,01,51,12.00
2015,05,22,01,52,12.00
2015,05,22,01,53,12.00
2015,05,22,01,54,12.00
2015,05,22,01,55,12.00
2015,05,22,01,56,12.00
2015,05,22,01,57,12.00
2015,05,22,01,58,12.00
2015,05,22,01,59,12.00
2015,05,22,02,00,12.00
2015,05,22,02,01,12.00
2015,05,22,02,02,12.00
2015,05,22,02,03,12.00
2015,05,22,02,04,11.90
2015,05,22,02,05,11.90
2015,05,22,02,06,11.90
2015,05,22,02,07,11.90
2015,05,22,02,08,11.90
2015,05,22,02,09,11.90
2015,05,22,02,10,11.90
2015,05,22,02,11,11.90
2015,05,22,02,12,11.90
2015,05,22,02,13,11.90
2015,05,22,02,14,11.90
2015,05,22,02,15,11.90
2015,05,22,02,16,11.90
2015,05,22,02,17,11.90
2015,05,22,02,18,11.90
2015,05,22,02,19,11.90
2015,05,22,02,20,11.90
2015,05,22,02,21,11.90
2015,05,22,02,22,11.90
2015,05,22,02,23,11.90
2015,05,22,02,24,11.90
2015,05,22,02,25,11.90
2015,05,22,02,26,11.90
2015,05,22,02,27,11.90
2015,05,22,02,28,11.90
2015,05,22,02,29,11.80
2015,05,22,02,30,11.80
2015,05,22,02,31,11.80
2015,05,22,02,32,11.80
2015,05,22,02,33,11.80
2015,05,22,02,34,11.80
2015,05,22,02,35,11.80
2015,05,22,02,36,11.80
2015,05,22,02,37,11.80
2015,05,22,02,38,11.80
2015,05,22,02,39,11.80
2015,05,22,02,40,11.80
2015,05,22,02,41,11.70
2015,05,22,02,42,11.70
2015,05,22,02,43,11.70
2015,05,22,02,44,11.70
2015,05,22,02,45,11.60
2015,05,22,02,46,11.60
2015,05,22,02,47,11.60
2015,05,22,02,48,11.60
2015,05,22,02,49,11.60
2015,05,22,02,50,11.60
2015,05,22,02,51,11.70
2015,05,22,02,52,11.70
2015,05,22,02,53,11.70
2015,05,22,02,54,11.80
2015,05,22,02,55,11.80
2015,05,22,02,56,11.80
2015,05,22,02,57,11.80
2015,05,22,02,58,11.80
2015,05,22,02,59,11.80
2015,05,22,03,00,11.80
2015,05,22,03,01,11.80
2015,05,22,03,02,11.80
2015,05,22,03,03,11.80
2015,05,22,03,04,11.80
2015,05,22,03,05,11.80
2015,05,22,03,06,11.80
2015,05,22,03,07,11.80
2015,05,22,03,08,11.80
2015,05,22,03,09,11.80
2015,05,22,03,10,11.80
2015,05,22,03,11,11.80
2015,05,22,03,12,11.80
2015,05,22,03,13,11.80
2015,05,22,03,14,11.80
2015,05,22,03,15,11.80
2015,05,22,03,16,11.80
2015,05,22,03,17,11.80
2015,05,22,03,18,11.80
2015,05,22,03,19,11.80
2015,05,22,03,20,11.80
2015,05,22,03,21,11.80
2015,05,22,03,22,11.90
2015,05,22,03,23,11.90
2015,05,22,03,24,11.90
2015,05,22,03,25,11.90
2015,05,22,03,26,11.90
2015,05,22,03,27,11.90
2015,05,22,03,28,11.90
2015,05,22,03,29,11.90
2015,05,22,03,30,11.90
2015,05,22,03,31,11.90
2015,05,22,03,32,11.80
2015,05,22,03,33,11.90
2015,05,22,03,34,11.90
2015,05,22,03,35,11.90
2015,05,22,03,36,11.90
2015,05,22,03,37,11.90
2015,05,22,03,38,11.90
2015,05,22,03,39,11.90
2015,05,22,03,40,11.90
2015,05,22,03,41,11.90
2015,05,22,03,42,11.90
2015,05,22,03,43,11.90
2015,05,22,03,44,11.90
2015,05,22,03,45,11.90
2015,05,22,03,46,11.90
2015,05,22,03,47,11.90
2015,05,22,03,48,11.80
2015,05,22,03,49,11.80
2015,05,22,03,50,11.80
2015,05,22,03,51,11.80
2015,05,22,03,52,11.80
2015,05,22,03,53,11.80
2015,05,22,03,54,11.80
2015,05,22,03,55,11.80
2015,05,22,03,56,11.80
2015,05,22,03,57,11.80
2015,05,22,03,58,11.80
2015,05,22,03,59,11.80
2015,05,22,04,00,11.80
2015,05,22,04,01,11.70
2015,05,22,04,02,11.70
2015,05,22,04,03,11.70
2015,05,22,04,04,11.70
2015,05,22,04,05,11.70
2015,05,22,04,06,11.70
2015,05,22,04,07,11.70
2015,05,22,04,08,11.70
2015,05,22,04,09,11.70
2015,05,22,04,10,11.70
2015,05,22,04,11,11.70
2015,05,22,04,12,11.80
2015,05,22,04,13,11.80
2015,05,22,04,14,11.80
2015,05,22,04,15,11.80
2015,05,22,04,16,11.80
2015,05,22,04,17,11.80
2015,05,22,04,18,11.80
2015,05,22,04,19,11.80
2015,05,22,04,20,11.80
2015,05,22,04,21,11.80
2015,05,22,04,22,11.80
2015,05,22,04,23,11.80
2015,05,22,04,24,11.80
2015,05,22,04,25,11.80
2015,05,22,04,26,11.80
2015,05,22,04,27,11.80
2015,05,22,04,28,11.80
2015,05,22,04,29,11.80
2015,05,22,04,30,11.80
2015,05,22,04,31,11.80
2015,05,22,04,32,11.80
2015,05,22,04,33,11.80
2015,05,22,04,34,11.80
2015,05,22,04,35,11.80
2015,05,22,04,36,11.80
2015,05,22,04,37,11.80
2015,05,22,04,38,11.80
2015,05,22,04,39,11.80
2015,05,22,04,40,11.80
2015,05,22,04,41,11.80
2015,05,22,04,42,11.80
2015,05,22,04,43,11.80
2015,05,22,04,44,11.80
2015,05,22,04,45,11.80
2015,05,22,04,46,11.80
2015,05,22,04,47,11.80
2015,05,22,04,48,11.80
2015,05,22,04,49,11.70
2015,05,22,04,50,11.70
2015,05,22,04,51,11.80
2015,05,22,04,52,11.80
2015,05,22,04,53,11.80
2015,05,22,04,54,11.80
2015,05,22,04,55,11.80
2015,05,22,04,56,11.80
2015,05,22,04,57,11.80
2015,05,22,04,58,11.80
2015,05,22,04,59,11.80
2015,05,22,05,00,11.80
2015,05,22,05,01,11.80
2015,05,22,05,02,11.80
2015,05,22,05,03,11.80
2015,05,22,05,04,11.80
2015,05,22,05,05,11.80
2015,05,22,05,06,11.80
2015,05,22,05,07,11.80
2015,05,22,05,08,11.80
2015,05,22,05,09,11.80
2015,05,22,05,10,11.80
2015,05,22,05,11,11.80
2015,05,22,05,12,11.80
2015,05,22,05,13,11.90
2015,05,22,05,14,11.90
2015,05,22,05,15,11.90
2015,05,22,05,16,11.90
2015,05,22,05,17,11.90
2015,05,22,05,18,11.90
2015,05,22,05,19,11.90
2015,05,22,05,20,11.90
2015,05,22,05,21,11.90
2015,05,22,05,22,11.90
2015,05,22,05,23,11.90
2015,05,22,05,24,12.00
2015,05,22,05,25,12.00
2015,05,22,05,26,12.00
2015,05,22,05,27,12.00
2015,05,22,05,28,12.00
2015,05,22,05,29,12.00
2015,05,22,05,30,12.00
2015,05,22,05,31,12.00
2015,05,22,05,32,12.00
2015,05,22,05,33,12.00
2015,05,22,05,34,12.10
2015,05,22,05,35,12.10
2015,05,22,05,36,12.10
2015,05,22,05,37,12.10
2015,05,22,05,38,12.10
2015,05,22,05,39,12.10
2015,05,22,05,40,12.10
2015,05,22,05,41,12.10
2015,05,22,05,42,12.10
2015,05,22,05,43,12.10
2015,05,22,05,44,12.10
2015,05,22,05,45,12.10
2015,05,22,05,46,12.00
2015,05,22,05,47,12.00
2015,05,22,05,48,12.10
2015,05,22,05,49,12.10
2015,05,22,05,50,12.10
2015,05,22,05,51,12.10
2015,05,22,05,52,12.10
2015,05,22,05,53,12.20
2015,05,22,05,54,12.20
2015,05,22,05,55,12.20
2015,05,22,05,56,12.30
2015,05,22,05,57,12.30
2015,05,22,05,58,12.30
2015,05,22,05,59,12.30
2015,05,22,06,00,12.30
2015,05,22,06,01,12.30
2015,05,22,06,02,12.30
2015,05,22,06,03,12.30
2015,05,22,06,04,12.30
2015,05,22,06,05,12.30
2015,05,22,06,06,12.30
2015,05,22,06,07,12.30
2015,05,22,06,08,12.30
2015,05,22,06,09,12.30
2015,05,22,06,10,12.30
2015,05,22,06,11,12.30
2015,05,22,06,12,12.30
2015,05,22,06,13,12.40
2015,05,22,06,14,12.40
2015,05,22,06,15,12.40
2015,05,22,06,16,12.40
2015,05,22,06,17,12.40
2015,05,22,06,18,12.40
2015,05,22,06,19,12.40
2015,05,22,06,20,12.40
2015,05,22,06,21,12.40
2015,05,22,06,22,12.50
2015,05,22,06,23,12.50
2015,05,22,06,24,12.50
2015,05,22,06,25,12.60
2015,05,22,06,26,12.60
2015,05,22,06,27,12.60
2015,05,22,06,28,12.60
2015,05,22,06,29,12.60
2015,05,22,06,30,12.60
2015,05,22,06,31,12.60
2015,05,22,06,32,12.70
2015,05,22,06,33,12.70
2015,05,22,06,34,12.70
2015,05,22,06,35,12.80
2015,05,22,06,36,12.80
2015,05,22,06,37,12.80
2015,05,22,06,38,12.80
2015,05,22,06,39,12.80
2015,05,22,06,40,12.80
2015,05,22,06,41,12.80
2015,05,22,06,42,12.90
2015,05,22,06,43,12.90
2015,05,22,06,44,13.00
2015,05,22,06,45,13.00
2015,05,22,06,46,13.00
2015,05,22,06,47,13.00
2015,05,22,06,48,13.10
2015,05,22,06,49,13.10
2015,05,22,06,50,13.10
2015,05,22,06,51,13.10
2015,05,22,06,52,13.10
2015,05,22,06,53,13.20
2015,05,22,06,54,13.20
2015,05,22,06,55,13.20
2015,05,22,06,56,13.20
2015,05,22,06,57,13.20
2015,05,22,06,58,13.30
2015,05,22,06,59,13.30
2015,05,22,07,00,13.30
2015,05,22,07,01,13.30
2015,05,22,07,02,13.30
2015,05,22,07,03,13.30
2015,05,22,07,04,13.40
2015,05,22,07,05,13.40
2015,05,22,07,06,13.40
2015,05,22,07,07,13.40
2015,05,22,07,08,13.50
2015,05,22,07,09,13.50
2015,05,22,07,10,13.50
2015,05,22,07,11,13.60
2015,05,22,07,12,13.60
2015,05,22,07,13,13.70
2015,05,22,07,14,13.70
2015,05,22,07,15,13.80
2015,05,22,07,16,13.80
2015,05,22,07,17,13.90
2015,05,22,07,18,13.90
2015,05,22,07,19,14.00
2015,05,22,07,20,14.00
2015,05,22,07,21,14.10
2015,05,22,07,22,14.20
2015,05,22,07,23,14.20
2015,05,22,07,24,14.20
2015,05,22,07,25,14.30
2015,05,22,07,26,14.40
2015,05,22,07,27,14.40
2015,05,22,07,28,14.50
2015,05,22,07,29,14.50
2015,05,22,07,30,14.60
2015,05,22,07,31,14.70
2015,05,22,07,32,14.70
2015,05,22,07,33,14.80
2015,05,22,07,34,14.80
2015,05,22,07,35,14.90
2015,05,22,07,36,15.00
2015,05,22,07,37,15.10
2015,05,22,07,38,15.10
2015,05,22,07,39,15.20
2015,05,22,07,40,15.30
2015,05,22,07,41,15.30
2015,05,22,07,42,15.30
2015,05,22,07,43,15.30
2015,05,22,07,44,15.30
2015,05,22,07,45,15.30
2015,05,22,07,46,15.30
2015,05,22,07,47,15.40
2015,05,22,07,48,15.40
2015,05,22,07,49,15.40
2015,05,22,07,50,15.50
2015,05,22,07,51,15.50
2015,05,22,07,52,15.50
2015,05,22,07,53,15.50
2015,05,22,07,54,15.50
2015,05,22,07,55,15.60
2015,05,22,07,56,15.60
2015,05,22,07,57,15.60
2015,05,22,07,58,15.70
2015,05,22,07,59,15.70
2015,05,22,08,00,15.60
2015,05,22,08,01,15.60
2015,05,22,08,02,15.60
2015,05,22,08,03,15.60
2015,05,22,08,04,15.50
2015,05,22,08,05,15.50
2015,05,22,08,06,15.50
2015,05,22,08,07,15.50
2015,05,22,08,08,15.50
2015,05,22,08,09,15.50
2015,05,22,08,10,15.50
2015,05,22,08,11,15.50
2015,05,22,08,12,15.40
2015,05,22,08,13,15.40
2015,05,22,08,14,15.40
2015,05,22,08,15,15.40
2015,05,22,08,16,15.40
2015,05,22,08,17,15.50
2015,05,22,08,18,15.50
2015,05,22,08,19,15.60
2015,05,22,08,20,15.60
2015,05,22,08,21,15.70
2015,05,22,08,22,15.70
2015,05,22,08,23,15.70
2015,05,22,08,24,15.80
2015,05,22,08,25,15.80
2015,05,22,08,26,15.80
2015,05,22,08,27,15.80
2015,05,22,08,28,15.80
2015,05,22,08,29,15.80
2015,05,22,08,30,15.90
2015,05,22,08,31,16.00
2015,05,22,08,32,16.10
2015,05,22,08,33,16.10
2015,05,22,08,34,16.20
2015,05,22,08,35,16.20
2015,05,22,08,36,16.20
2015,05,22,08,37,16.10
2015,05,22,08,38,16.10
2015,05,22,08,39,16.10
2015,05,22,08,40,16.10
2015,05,22,08,41,16.10
2015,05,22,08,42,16.10
2015,05,22,08,43,16.10
2015,05,22,08,44,16.20
2015,05,22,08,45,16.30
2015,05,22,08,46,16.30
2015,05,22,08,47,16.40
2015,05,22,08,48,16.50
2015,05,22,08,49,16.60
2015,05,22,08,50,16.70
2015,05,22,08,51,16.80
2015,05,22,08,52,16.80
2015,05,22,08,53,16.80
2015,05,22,08,54,16.80
2015,05,22,08,55,16.90
2015,05,22,08,56,16.90
2015,05,22,08,57,17.00
2015,05,22,08,58,17.10
2015,05,22,08,59,17.20
2015,05,22,09,00,17.30
2015,05,22,09,01,17.30
2015,05,22,09,02,17.30
2015,05,22,09,03,17.30
2015,05,22,09,04,17.30
2015,05,22,09,05,17.30
2015,05,22,09,06,17.30
2015,05,22,09,07,17.30
2015,05,22,09,08,17.20
2015,05,22,09,09,17.20
2015,05,22,09,10,17.10
2015,05,22,09,11,17.10
2015,05,22,09,12,17.00
2015,05,22,09,13,16.90
2015,05,22,09,14,16.90
2015,05,22,09,15,16.70
2015,05,22,09,16,16.70
2015,05,22,09,17,16.60
2015,05,22,09,18,16.50
2015,05,22,09,19,16.40
2015,05,22,09,20,16.30
2015,05,22,09,21,16.20
2015,05,22,09,22,16.30
2015,05,22,09,23,16.30
2015,05,22,09,24,16.30
2015,05,22,09,25,16.40
2015,05,22,09,26,16.40
2015,05,22,09,27,16.40
2015,05,22,09,28,16.40
2015,05,22,09,29,16.40
2015,05,22,09,30,16.40
2015,05,22,09,31,16.40
2015,05,22,09,32,16.40
2015,05,22,09,33,16.40
2015,05,22,09,34,16.40
2015,05,22,09,35,16.30
2015,05,22,09,36,16.40
2015,05,22,09,37,16.40
2015,05,22,09,38,16.40
2015,05,22,09,39,16.30
2015,05,22,09,40,16.30
2015,05,22,09,41,16.20
2015,05,22,09,42,16.30
2015,05,22,09,43,16.30
2015,05,22,09,44,16.30
2015,05,22,09,45,16.30
2015,05,22,09,46,16.40
2015,05,22,09,47,16.40
2015,05,22,09,48,16.40
2015,05,22,09,49,16.40
2015,05,22,09,50,16.40
2015,05,22,09,51,16.60
2015,05,22,09,52,16.60
2015,05,22,09,53,16.70
2015,05,22,09,54,16.60
2015,05,22,09,55,16.60
2015,05,22,09,56,16.60
2015,05,22,09,57,16.60
2015,05,22,09,58,16.40
2015,05,22,09,59,16.40
2015,05,22,10,00,16.40
2015,05,22,10,01,16.30
2015,05,22,10,02,16.30
2015,05,22,10,03,16.40
2015,05,22,10,04,16.30
2015,05,22,10,05,16.30
2015,05,22,10,06,16.40
2015,05,22,10,07,16.40
2015,05,22,10,08,16.50
2015,05,22,10,09,16.70
2015,05,22,10,10,16.70
2015,05,22,10,11,16.80
2015,05,22,10,12,16.90
2015,05,22,10,13,17.00
2015,05,22,10,14,17.10
2015,05,22,10,15,17.10
2015,05,22,10,16,17.10
2015,05,22,10,17,17.30
2015,05,22,10,18,17.40
2015,05,22,10,19,17.50
2015,05,22,10,20,17.70
2015,05,22,10,21,17.80
2015,05,22,10,22,17.90
2015,05,22,10,23,17.90
2015,05,22,10,24,17.90
2015,05,22,10,25,17.90
2015,05,22,10,26,18.10
2015,05,22,10,27,18.10
2015,05,22,10,28,18.10
2015,05,22,10,29,18.10
2015,05,22,10,30,18.20
2015,05,22,10,31,18.20
2015,05,22,10,32,18.10
2015,05,22,10,33,18.10
2015,05,22,10,34,18.10
2015,05,22,10,35,18.00
2015,05,22,10,36,17.90
2015,05,22,10,37,17.90
2015,05,22,10,38,17.80
2015,05,22,10,39,17.70
2015,05,22,10,40,17.70
2015,05,22,10,41,17.70
2015,05,22,10,42,17.70
2015,05,22,10,43,17.70
2015,05,22,10,44,17.70
2015,05,22,10,45,17.60
2015,05,22,10,46,17.60
2015,05,22,10,47,17.60
2015,05,22,10,48,17.50
2015,05,22,10,49,17.40
2015,05,22,10,50,17.30
2015,05,22,10,51,17.20
2015,05,22,10,52,17.10
2015,05,22,10,53,17.00
2015,05,22,10,54,17.00
2015,05,22,10,55,16.90
2015,05,22,10,56,16.80
2015,05,22,10,57,16.70
2015,05,22,10,58,16.70
2015,05,22,10,59,16.70
2015,05,22,11,00,16.60
2015,05,22,11,01,16.50
2015,05,22,11,02,16.30
2015,05,22,11,03,16.20
2015,05,22,11,04,16.20
2015,05,22,11,05,16.20
2015,05,22,11,06,16.20
2015,05,22,11,07,16.20
2015,05,22,11,08,16.20
2015,05,22,11,09,16.10
2015,05,22,11,10,16.10
2015,05,22,11,11,16.10
2015,05,22,11,12,16.00
2015,05,22,11,13,15.90
2015,05,22,11,14,16.00
2015,05,22,11,15,16.10
2015,05,22,11,16,16.20
2015,05,22,11,17,16.30
2015,05,22,11,18,16.40
2015,05,22,11,19,16.40
2015,05,22,11,20,16.50
2015,05,22,11,21,16.70
2015,05,22,11,22,16.80
2015,05,22,11,23,16.80
2015,05,22,11,24,16.80
2015,05,22,11,25,16.90
2015,05,22,11,26,16.90
2015,05,22,11,27,16.90
2015,05,22,11,28,16.90
2015,05,22,11,29,17.00
2015,05,22,11,30,17.00
2015,05,22,11,31,17.00
2015,05,22,11,32,17.00
2015,05,22,11,33,17.10
2015,05,22,11,34,17.10
2015,05,22,11,35,17.20
2015,05,22,11,36,17.30
2015,05,22,11,37,17.30
2015,05,22,11,38,17.30
2015,05,22,11,39,17.30
2015,05,22,11,40,17.30
2015,05,22,11,41,17.30
2015,05,22,11,42,17.40
2015,05,22,11,43,17.50
2015,05,22,11,44,17.60
2015,05,22,11,45,17.60
2015,05,22,11,46,17.60
2015,05,22,11,47,17.60
2015,05,22,11,48,17.60
2015,05,22,11,49,17.50
2015,05,22,11,50,17.50
2015,05,22,11,51,17.60
2015,05,22,11,52,17.60
2015,05,22,11,53,17.70
2015,05,22,11,54,17.70
2015,05,22,11,55,17.70
2015,05,22,11,56,17.70
2015,05,22,11,57,17.70
2015,05,22,11,58,17.50
2015,05,22,11,59,17.40
2015,05,22,12,00,17.30
2015,05,22,12,01,17.30
2015,05,22,12,02,17.30
2015,05,22,12,03,17.30
2015,05,22,12,04,17.30
2015,05,22,12,05,17.20
2015,05,22,12,06,17.10
2015,05,22,12,07,17.00
2015,05,22,12,08,17.00
2015,05,22,12,09,16.90
2015,05,22,12,10,16.90
2015,05,22,12,11,17.00
2015,05,22,12,12,17.00
2015,05,22,12,13,17.10
2015,05,22,12,14,17.10
2015,05,22,12,15,17.20
2015,05,22,12,16,17.30
2015,05,22,12,17,17.40
2015,05,22,12,18,17.40
2015,05,22,12,19,17.40
2015,05,22,12,20,17.40
2015,05,22,12,21,17.40
2015,05,22,12,22,17.50
2015,05,22,12,23,17.50
2015,05,22,12,24,17.50
2015,05,22,12,25,17.50
2015,05,22,12,26,17.60
2015,05,22,12,27,17.60
2015,05,22,12,28,17.60
2015,05,22,12,29,17.60
2015,05,22,12,30,17.70
2015,05,22,12,31,17.80
2015,05,22,12,32,17.80
2015,05,22,12,33,17.90
2015,05,22,12,34,17.90
2015,05,22,12,35,18.00
2015,05,22,12,36,18.00
2015,05,22,12,37,17.90
2015,05,22,12,38,18.00
2015,05,22,12,39,18.00
2015,05,22,12,40,17.90
2015,05,22,12,41,17.90
2015,05,22,12,42,17.80
2015,05,22,12,43,17.80
2015,05,22,12,44,17.80
2015,05,22,12,45,17.80
2015,05,22,12,46,17.90
2015,05,22,12,47,18.00
2015,05,22,12,48,18.10
2015,05,22,12,49,18.20
2015,05,22,12,50,18.20
2015,05,22,12,51,18.20
2015,05,22,12,52,18.30
2015,05,22,12,53,18.20
2015,05,22,12,54,18.20
2015,05,22,12,55,18.30
2015,05,22,12,56,18.30
2015,05,22,12,57,18.30
2015,05,22,12,58,18.30
2015,05,22,12,59,18.20
2015,05,22,13,00,18.10
2015,05,22,13,01,17.90
2015,05,22,13,02,17.90
2015,05,22,13,03,17.90
2015,05,22,13,04,18.00
2015,05,22,13,05,18.10
2015,05,22,13,06,18.10
2015,05,22,13,07,18.00
2015,05,22,13,08,17.90
2015,05,22,13,09,17.80
2015,05,22,13,10,17.60
2015,05,22,13,11,17.50
2015,05,22,13,12,17.40
2015,05,22,13,13,17.30
2015,05,22,13,14,17.40
2015,05,22,13,15,17.40
2015,05,22,13,16,17.30
2015,05,22,13,17,17.20
2015,05,22,13,18,17.20
2015,05,22,13,19,17.20
2015,05,22,13,20,17.20
2015,05,22,13,21,17.20
2015,05,22,13,22,17.20
2015,05,22,13,23,17.30
2015,05,22,13,24,17.30
2015,05,22,13,25,17.40
2015,05,22,13,26,17.40
2015,05,22,13,27,17.30
2015,05,22,13,28,17.30
2015,05,22,13,29,17.30
2015,05,22,13,30,17.20
2015,05,22,13,31,17.20
2015,05,22,13,32,17.20
2015,05,22,13,33,17.20
2015,05,22,13,34,17.10
2015,05,22,13,35,17.00
2015,05,22,13,36,16.90
2015,05,22,13,37,16.90
2015,05,22,13,38,17.00
2015,05,22,13,39,17.00
2015,05,22,13,40,17.10
2015,05,22,13,41,17.10
2015,05,22,13,42,17.10
2015,05,22,13,43,17.10
2015,05,22,13,44,17.20
2015,05,22,13,45,17.30
2015,05,22,13,46,17.30
2015,05,22,13,47,17.40
2015,05,22,13,48,17.40
2015,05,22,13,49,17.40
2015,05,22,13,50,17.30
2015,05,22,13,51,17.30
2015,05,22,13,52,17.30
2015,05,22,13,53,17.30
2015,05,22,13,54,17.30
2015,05,22,13,55,17.30
2015,05,22,13,56,17.30
2015,05,22,13,57,17.30
2015,05,22,13,58,17.30
2015,05,22,13,59,17.20
2015,05,22,14,00,17.20
2015,05,22,14,01,17.10
2015,05,22,14,02,17.10
2015,05,22,14,03,17.20
2015,05,22,14,04,17.20
2015,05,22,14,05,17.20
2015,05,22,14,06,17.30
2015,05,22,14,07,17.30
2015,05,22,14,08,17.40
2015,05,22,14,09,17.40
2015,05,22,14,10,17.40
2015,05,22,14,11,17.40
2015,05,22,14,12,17.40
2015,05,22,14,13,17.40
2015,05,22,14,14,17.40
2015,05,22,14,15,17.30
2015,05,22,14,16,17.40
2015,05,22,14,17,17.40
2015,05,22,14,18,17.30
2015,05,22,14,19,17.30
2015,05,22,14,20,17.30
2015,05,22,14,21,17.30
2015,05,22,14,22,17.20
2015,05,22,14,23,17.10
2015,05,22,14,24,17.20
2015,05,22,14,25,17.20
2015,05,22,14,26,17.20
2015,05,22,14,27,17.20
2015,05,22,14,28,17.20
2015,05,22,14,29,17.20
2015,05,22,14,30,17.20
2015,05,22,14,31,17.20
2015,05,22,14,32,17.30
2015,05,22,14,33,17.30
2015,05,22,14,34,17.40
2015,05,22,14,35,17.30
2015,05,22,14,36,17.40
2015,05,22,14,37,17.50
2015,05,22,14,38,17.60
2015,05,22,14,39,17.60
2015,05,22,14,40,17.70
2015,05,22,14,41,17.70
2015,05,22,14,42,17.70
2015,05,22,14,43,17.70
2015,05,22,14,44,17.60
2015,05,22,14,45,17.60
2015,05,22,14,46,17.70
2015,05,22,14,47,17.70
2015,05,22,14,48,17.80
2015,05,22,14,49,17.90
2015,05,22,14,50,17.90
2015,05,22,14,51,18.10
2015,05,22,14,52,18.10
2015,05,22,14,53,18.00
2015,05,22,14,54,17.90
2015,05,22,14,55,17.90
2015,05,22,14,56,17.80
2015,05,22,14,57,17.70
2015,05,22,14,58,17.80
2015,05,22,14,59,17.90
2015,05,22,15,00,17.90
2015,05,22,15,01,17.90
2015,05,22,15,02,17.90
2015,05,22,15,03,17.90
2015,05,22,15,04,17.90
2015,05,22,15,05,17.90
2015,05,22,15,06,18.00
2015,05,22,15,07,18.10
2015,05,22,15,08,18.20
2015,05,22,15,09,18.20
2015,05,22,15,10,18.20
2015,05,22,15,11,18.20
2015,05,22,15,12,18.10
2015,05,22,15,13,18.00
2015,05,22,15,14,17.90
2015,05,22,15,15,17.90
2015,05,22,15,16,17.90
2015,05,22,15,17,18.10
2015,05,22,15,18,18.10
2015,05,22,15,19,18.00
2015,05,22,15,20,17.90
2015,05,22,15,21,17.90
2015,05,22,15,22,17.80
2015,05,22,15,23,17.80
2015,05,22,15,24,17.80
2015,05,22,15,25,17.90
2015,05,22,15,26,17.90
2015,05,22,15,27,18.00
2015,05,22,15,28,18.00
2015,05,22,15,29,17.90
2015,05,22,15,30,17.90
2015,05,22,15,31,17.90
2015,05,22,15,32,17.90
2015,05,22,15,33,17.90
2015,05,22,15,34,17.80
2015,05,22,15,35,17.70
2015,05,22,15,36,17.60
2015,05,22,15,37,17.50
2015,05,22,15,38,17.50
2015,05,22,15,39,17.50
2015,05,22,15,40,17.50
2015,05,22,15,41,17.50
2015,05,22,15,42,17.40
2015,05,22,15,43,17.30
2015,05,22,15,44,17.30
2015,05,22,15,45,17.30
2015,05,22,15,46,17.30
2015,05,22,15,47,17.20
2015,05,22,15,48,17.20
2015,05,22,15,49,17.20
2015,05,22,15,50,17.20
2015,05,22,15,51,17.20
2015,05,22,15,52,17.20
2015,05,22,15,53,17.30
2015,05,22,15,54,17.30
2015,05,22,15,55,17.30
2015,05,22,15,56,17.30
2015,05,22,15,57,17.30
2015,05,22,15,58,17.30
2015,05,22,15,59,17.20
2015,05,22,16,00,17.10
2015,05,22,16,01,17.00
2015,05,22,16,02,16.80
2015,05,22,16,03,16.60
2015,05,22,16,04,16.50
2015,05,22,16,05,16.40
2015,05,22,16,06,16.30
2015,05,22,16,07,16.30
2015,05,22,16,08,16.30
2015,05,22,16,09,16.20
2015,05,22,16,10,16.30
2015,05,22,16,11,16.20
2015,05,22,16,12,16.20
2015,05,22,16,13,16.20
2015,05,22,16,14,16.30
2015,05,22,16,15,16.40
2015,05,22,16,16,16.60
2015,05,22,16,17,16.70
2015,05,22,16,18,16.70
2015,05,22,16,19,16.70
2015,05,22,16,20,16.80
2015,05,22,16,21,16.90
2015,05,22,16,22,17.00
2015,05,22,16,23,17.10
2015,05,22,16,24,17.20
2015,05,22,16,25,17.10
2015,05,22,16,26,17.20
2015,05,22,16,27,17.30
2015,05,22,16,28,17.40
2015,05,22,16,29,17.40
2015,05,22,16,30,17.40
2015,05,22,16,31,17.30
2015,05,22,16,32,17.10
2015,05,22,16,33,17.00
2015,05,22,16,34,16.70
2015,05,22,16,35,16.60
2015,05,22,16,36,16.40
2015,05,22,16,37,16.30
2015,05,22,16,38,16.10
2015,05,22,16,39,16.10
2015,05,22,16,40,16.00
2015,05,22,16,41,15.90
2015,05,22,16,42,15.90
2015,05,22,16,43,15.80
2015,05,22,16,44,15.60
2015,05,22,16,45,15.50
2015,05,22,16,46,15.40
2015,05,22,16,47,15.40
2015,05,22,16,48,15.30
2015,05,22,16,49,15.30
2015,05,22,16,50,15.20
2015,05,22,16,51,15.10
2015,05,22,16,52,15.10
2015,05,22,16,53,15.10
2015,05,22,16,54,15.10
2015,05,22,16,55,15.10
2015,05,22,16,56,15.20
2015,05,22,16,57,15.20
2015,05,22,16,58,15.30
2015,05,22,16,59,15.30
2015,05,22,17,00,15.40
2015,05,22,17,01,15.40
2015,05,22,17,02,15.40
2015,05,22,17,03,15.40
2015,05,22,17,04,15.30
2015,05,22,17,05,15.30
2015,05,22,17,06,15.30
2015,05,22,17,07,15.20
2015,05,22,17,08,15.20
2015,05,22,17,09,15.10
2015,05,22,17,10,15.00
2015,05,22,17,11,15.00
2015,05,22,17,12,15.00
2015,05,22,17,13,14.90
2015,05,22,17,14,14.90
2015,05,22,17,15,14.90
2015,05,22,17,16,14.80
2015,05,22,17,17,14.80
2015,05,22,17,18,14.80
2015,05,22,17,19,14.80